Regional Weather Roundup
Issued by NWS Kansas City/Pleasant Hill, MO

Home | Current Version | Previous Version | Text Only | Print | Product List | Glossary On
Versions: 1 2 3 4 5 6 7 8 9 10 11 12 13 14 15 16 17 18 19 20 21 22 23 24 25 26 27 28 29 30 31 32 33 34 35 36 37 38 39 40 41 42 43 44 45 46 47 48 49 50
000
ASUS43 KEAX 011611
RWREAX

WEATHER ROUNDUP FOR EASTERN KANSAS AND NORTHWEST MISSOURI
NATIONAL WEATHER SERVICE KANSAS CITY/PLEASANT HILL MO
1000 AM CST SUN MAR 01 2015

KSZ040-057-103>105-MOZ028-029-037-043-011700-
...KANSAS CITY METROPOLITAN AREA...

CITY           SKY/WX    TMP DP  RH WIND       PRES   REMARKS
K.C. INTL      PTSUNNY   27  20  75 N6        30.39S WCI  20
K.C. DOWNTOWN  PTSUNNY   27  20  75 NW5       30.40S WCI  22
LEES SUMMIT    PTSUNNY   26  19  74 N8        30.39S WCI  18
OLATHE - IXD   MOSUNNY   24  20  84 NW7       30.40R WCI  16
OLATHE - OJC   PTSUNNY   26  19  74 N8        30.38R WCI  18
LAWRENCE       CLOUDY    25  20  81 NW6       30.41S WCI  18

$$

MOZ001>008-011>017-020>025-030>033-038>040-044>046-053-054-011700-
...NORTHERN AND CENTRAL MISSOURI...

CITY           SKY/WX    TMP DP  RH WIND       PRES   REMARKS
ST. JOSEPH     PTSUNNY   25  20  81 NW7       30.42R WCI  17
MOSBY          PTSUNNY   28  21  74 N5        30.42R WCI  23
WARRENSBURG    CLOUDY    28  21  74 W5        30.42R WCI  23
WHITEMAN AFB   FLURRIES  26  20  80 N6        30.39S WCI  19
CLINTON        CLOUDY    28  25  86 N3        30.41S
SEDALIA        CLOUDY    27  21  78 N6        30.40S WCI  20
WARSAW         NOT AVBL
MARSHALL       LGT SNOW  27  25  93 NW3       30.40
CHILLICOTHE      N/A     28  20  71 N5        30.42R WCI  23
KIRKSVILLE     CLOUDY    24  19  81 NW3       30.38F

$$

MOZ041-047>049-056>058-063>065-088>090-097-011700-
...EASTERN AND SOUTHERN MISSOURI...

CITY           SKY/WX    TMP DP  RH WIND       PRES   REMARKS
ST. LOUIS INTL FRZ DRZL  30  27  88 W5        30.39S VSB 1   WCI  25
SPIRIT OF STL  CLOUDY    27  26  96 W5        30.40R FOG     WCI  22
COLUMBIA       LGT SNOW  27  23  85 NW7       30.38S FOG     WCI  19
JEFFERSON CITY LGT SNOW  27  23  85 W7        30.41R FOG     WCI  19
MEXICO         LGT SNOW  27  27 100 CALM      30.37F VSB 3/4
HANNIBAL       LGT SNOW  27  19  74 NW3       30.38F
ROLLA          CLOUDY    26  24  92 NW5       30.35S FOG     WCI  20
OSAGE BEACH    CLOUDY    27  25  93 N3        30.37F
SPRINGFIELD    CLOUDY    28  26  92 N6        30.36R FOG     WCI  22
BRANSON        CLOUDY    32  30  93 CALM      30.36S FOG
NEVADA         CLOUDY    25  23  93 CALM      30.41R
JOPLIN         CLOUDY    27  25  92 N6        30.40R WCI  20
WEST PLAINS    CLOUDY    32  30  92 W5        30.35R FOG     WCI  27

$$

IAZ060-094-KSZ022-034>040-054-083-096-NEZ052-066-093-011700-
...KANSAS...SOUTHEAST NEBRASKA AND IOWA...

CITY           SKY/WX    TMP DP  RH WIND       PRES   REMARKS
TOPEKA         PTSUNNY   26  20  77 W6        30.42R WCI  19
MANHATTAN      SUNNY     27  19  72 VRB5      30.41S WCI  22
EMPORIA        FAIR      24  19  81 CALM      30.41R
CHANUTE        CLOUDY    27  22  81 NE5       30.41R WCI  22
WICHITA        LGTSLEET  25  21  85 NW3       30.40R FOG
OMAHA          MOSUNNY   25  15  66 NW8       30.39R WCI  16
LINCOLN        SUNNY     26  17  68 NW8       30.39S WCI  18
FALLS CITY     PTSUNNY   26  19  74 W8        30.40R WCI  18
LAMONI         CLOUDY    23  17  78 W10       30.37S WCI  12
DES MOINES     PTSUNNY   26  16  65 W7        30.37S WCI  18

$$




USA.gov is the U.S. government's official web portal to all federal, state and local government web resources and services.